Regional Weather Roundup
Issued by NWS Charleston, SC

Current Version | Previous Version | Graphics & Text | Print | Product List | Glossary On
Versions: 1 2 3 4 5 6 7 8 9 10 11 12 13 14 15 16 17 18 19 20 21 22 23 24 25 26 27 28 29 30 31 32 33 34 35 36 37 38 39 40 41 42 43 44 45 46 47 48 49 50
000
ASUS42 KCHS 280428
RWRCHS

REGIONAL WEATHER ROUNDUP
NATIONAL WEATHER SERVICE CHARLESTON SC
1200 AM EDT WED SEP 28 2016

NOTE: "FAIR" INDICATES FEW OR NO CLOUDS BELOW 12,000 FEET WITH NO
SIGNIFICANT WEATHER AND/OR OBSTRUCTIONS TO VISIBILITY.

NOT ALL STATIONS ARE QUALITY CONTROLLED. USE DATA WITH CAUTION...
ESPECIALLY DEWPOINT OBSERVATIONS.

SCZ027-030-031-034>040-042>050-280500-
...SOUTHEAST SOUTH CAROLINA...

CITY           SKY/WX    TMP DP  RH WIND       PRES   REMARKS
N CHARLESTON   PTCLDY    73  70  90 S3        29.91F
WATERFRONT PRK   N/A     77  73  87 CALM      29.90S
MOUNT PLEASANT FAIR      72  72 100 CALM      29.92S
JOHNS ISLAND   FAIR      72  72 100 CALM      29.92S
PINOPOLIS        N/A     75  72  88 VRB2      29.84F
MONCKS CORNER  FAIR      70  68  94 CALM      29.92R
SUMMERVILLE    FAIR      72  72 100 CALM      29.93S
BEAUFORT MCAS  CLEAR     74  72  93 S3        29.92S
BEAUFORT ARPT  FAIR      73  72  94 CALM      29.92S
HILTON HEAD IS PTCLDY    73  73 100 CALM      29.93S
WALTERBORO     CLEAR     73 N/A N/A CALM      29.93S
ALLENDALE      FAIR      73  72  94 CALM      29.92R

...SOUTHERN MIDLANDS AND PEE DEE...

CITY           SKY/WX    TMP DP  RH WIND       PRES   REMARKS
GEORGETOWN     FAIR      68  68 100 CALM      29.93S
KINGSTREE      FAIR      70  68  94 CALM      29.93R
ORANGEBURG     CLEAR     72  71  97 SW6       29.92R
BARNWELL       NOT AVBL
AIKEN          MOCLDY    72  64  78 NW5       29.97R
MANNING        FAIR      72  70  94 S3        29.92R
COLUMBIA       CLOUDY    76  69  79 S3        29.90R
SUMTER         PTCLDY    73  69  87 S2        29.90R
FLORENCE       CLEAR     74  70  87 S5        29.92R
MYRTLE BEACH   CLEAR     72  61  68 CALM      29.93S
N MYRTLE BEACH CLEAR     72  70  93 CALM      29.91S

$$

GAZ063-065-086>088-099>101-113>116-118-119-134>141-150-280500-
...SOUTHEAST GEORGIA...

CITY           SKY/WX    TMP DP  RH WIND       PRES   REMARKS
SAVANNAH ARPT  CLEAR     74  70  87 CALM      29.93S
HUNTER AAF     CLEAR     73  73 100 S2        29.91S
FORT STEWART   CLEAR     72  70  92 CALM      29.91S
STATESBORO     CLEAR     74  73  94 S3        29.92F
SYLVANIA       NOT AVBL
CLAXTON        FAIR      71  71 100 CALM      29.93S

...CSRA...CENTRAL AND FAR SOUTHEAST GEORGIA...

CITY           SKY/WX    TMP DP  RH WIND       PRES   REMARKS
THOMSON        CLOUDY    74  71  88 CALM      29.96S
AUGUSTA-BUSH   CLEAR     73  67  81 S3        29.90R
AUGUSTA-DANIEL CLEAR     78  65  63 CALM      29.92R
SWAINSBORO     FAIR      73  68  83 CALM      29.94S
VIDALIA        CLEAR     73  72  94 CALM      29.94S
EASTMAN        FAIR      73  62  67 CALM      29.95F
HAZLEHURST     FAIR      74  72  92 N3        29.93S
ALMA           CLEAR     69  69 100 CALM      29.94R FOG
WAYCROSS       PTCLDY    74  73  98 CALM      29.94S
JESUP          FAIR      72  72 100 CALM      29.94S
BAXLEY         FAIR      72  72 100 CALM      29.94S
BRUNSWICK      CLEAR     72  72 100 CALM      29.94F
SAINT SIMONS   PTCLDY    78  71  79 CALM      29.94R

$$

SCZ027-028-034-036>038-045-046-048>050-GAZ119-141-280500-
...LAKE AND SUPPLEMENTAL COASTAL OBSERVATIONS...

STATION/POSITION TIME  TEMP    WIND        PRES    WAVE   SWELL
                       AIR SEA DIR/SP/G            HT/PER HT/PER/DIR
                 (UTC) (F)     (DEG/KT/KT) (MB)    (FT/S) (FT/S/D)
WINYAH BAY       0345   73     280/  1     1012.0S
LAKE MURRAY      0350   72     320/  2/ 13 1012.5R
ACE BASIN NERRS  0345   73        CALM     1013.0S
FORT PULASKI     0400   77 81  150/  3/  4 1013.8
SAPELO ISLAND    0400   76     180/  4     1014.0

$$

ANZ835-935-AMZ111-154-330-350-352-354-370-450-454-472-280500-
...C-MAN AND BUOY OBSERVATIONS...

STATION/POSITION TIME  TEMP    WIND        PRES    WAVE   SWELL
                       AIR SEA DIR/SP/G            HT/PER HT/PER/DIR
                 (UTC) (F)     (DEG/KT/KT) (MB)    (FT/S) (FT/S/D)
BUOY 41004       0350   80 82   CALM  /  2 1012.5F   2/11   2/120/11
BUOY 41008       0350   80 82  160/  4/  6 1013.6R   2/10   2/ 80/10
FOLLY BEACH CMAN 0400   79     190/  7/  7 1013.2F
CAPERS NEARSHORE 0308   79 81  200/  4/  6 1013.3R
FRIPP NEARSHORE  0308   79 81  190/  6/  8 1013.5R


STATION/POSITION TIME  TEMP    WIND        PRES    WAVE   SWELL
                       AIR SEA DIR/SP/G            HT/PER HT/PER/DIR
                 (UTC) (F)     (DEG/KT/KT) (MB)    (FT/S) (FT/S/D)
5E ST. MARYS GA  0401      82                N/A     2/13   2/110/13
FRYING PAN BUOY  0410   80 82   90/  2/  4 1012.6
BUOY 41025       0350   77 84  360/ 12/ 16 1011.6F   5/ 7   3/120/ 7
CAPE LOOKOUT NC  0400   75     360/  5/  5 1012.1R
BUOY 41002       0350   82 83  250/ 14/ 17 1012.8R   5/12   3/ 80/12
BUOY 41010       NOT AVBL
ST AUGUSTINE FL  0400   76 84  230/  5/  6 1015.0S


$$



USA.gov is the U.S. government's official web portal to all federal, state and local government web resources and services.